カタログに戻る

CHINASAT 9A

運用中通信GEO
NORAD 42763·PAYLOAD·🇨🇳 China

打ち上げ Jun 18, 2017 から Xichang Satellite Launch Center

Loading…

TLE

最新Source: Space-Track

元期: Sep 14, 2026, 11:01 UTC

1 42763U 17035A   26257.45942465 -.00000346  00000-0  00000-0 0  9993
2 42763   5.2073  74.0775 0000748 333.3069 247.1166  0.99790606 34546

AllMySatでCHINASAT 9Aをリアルタイム追跡

Download on the App Store